TIV85 KADS-KIAH

Flight info

Callsign TIV85
Flight time 0h 42m
Altitude 27000
Route JPOOL8 TORNN RIICE1
Aircraft C25B/L-SDE2E3FGHRWXY/LB1

Departure

Time 2026-04-26 22:43
Airport Addison Airport (KADS)

Arrival

Time 2026-04-26 23:25
Airport George Bush Intercontinental Airport (KIAH)
Time Latitude Longitude Altitude Speed Heading
2026-04-26 21:55 32.96053 -96.83087 639 ft 0 kts 354°
2026-04-26 22:32 32.96055 -96.83087 639 ft 0 kts 354°
2026-04-26 22:33 32.96058 -96.83087 639 ft 0 kts 354°
2026-04-26 22:33 32.96094 -96.83142 639 ft 10 kts 298°
2026-04-26 22:33 32.96163 -96.83192 639 ft 14 kts 342°
2026-04-26 22:34 32.96214 -96.83261 638 ft 14 kts 337°
2026-04-26 22:34 32.96347 -96.83320 638 ft 23 kts 340°
2026-04-26 22:34 32.96504 -96.83388 638 ft 25 kts 339°
2026-04-26 22:34 32.96672 -96.83461 638 ft 26 kts 339°
2026-04-26 22:35 32.96846 -96.83538 639 ft 27 kts 340°
2026-04-26 22:35 32.97026 -96.83617 639 ft 28 kts 340°
2026-04-26 22:35 32.97215 -96.83700 639 ft 29 kts 340°
2026-04-26 22:35 32.97411 -96.83785 639 ft 31 kts 340°
2026-04-26 22:36 32.97578 -96.83858 639 ft 20 kts 340°
2026-04-26 22:36 32.97689 -96.83906 638 ft 13 kts 340°
2026-04-26 22:36 32.97744 -96.83930 638 ft 6 kts 340°
2026-04-26 22:36 32.97771 -96.83944 639 ft 5 kts 326°
2026-04-26 22:37 32.97779 -96.83953 639 ft 0 kts 309°
2026-04-26 22:42 32.97790 -96.83990 639 ft 12 kts 265°
2026-04-26 22:42 32.97770 -96.84044 640 ft 3 kts 176°
2026-04-26 22:42 32.97653 -96.83994 639 ft 59 kts 160°
2026-04-26 22:43 32.96932 -96.83674 809 ft 154 kts 160°
2026-04-26 22:43 32.95759 -96.83120 1400 ft 195 kts 159°
2026-04-26 22:43 32.94529 -96.82492 1870 ft 189 kts 160°
2026-04-26 22:43 32.93310 -96.81903 1989 ft 188 kts 160°
2026-04-26 22:44 32.92099 -96.81294 2102 ft 191 kts 160°
2026-04-26 22:44 32.90875 -96.80675 3019 ft 189 kts 160°
2026-04-26 22:44 32.89624 -96.80032 3670 ft 207 kts 160°
2026-04-26 22:44 32.88212 -96.79316 4035 ft 234 kts 159°
2026-04-26 22:45 32.86643 -96.78527 4446 ft 251 kts 160°
2026-04-26 22:45 32.85032 -96.77725 5159 ft 254 kts 160°
2026-04-26 22:45 32.83386 -96.76884 5758 ft 260 kts 160°
2026-04-26 22:45 32.81735 -96.76015 6355 ft 266 kts 160°
2026-04-26 22:46 32.80035 -96.75091 6963 ft 270 kts 160°
2026-04-26 22:46 32.78319 -96.74142 7603 ft 273 kts 159°
2026-04-26 22:46 32.76596 -96.73183 8326 ft 273 kts 160°
2026-04-26 22:46 32.74808 -96.72733 9051 ft 259 kts 191°
2026-04-26 22:47 32.73115 -96.73312 9951 ft 244 kts 202°
2026-04-26 22:47 32.71483 -96.73837 10757 ft 247 kts 198°
2026-04-26 22:47 32.69754 -96.74177 11454 ft 256 kts 193°
2026-04-26 22:47 32.67979 -96.74431 12495 ft 259 kts 194°
2026-04-26 22:48 32.66198 -96.74726 13392 ft 265 kts 195°
2026-04-26 22:48 32.64353 -96.75047 14168 ft 270 kts 196°
2026-04-26 22:48 32.62474 -96.75369 14962 ft 275 kts 195°
2026-04-26 22:48 32.60565 -96.75694 15756 ft 279 kts 195°
2026-04-26 22:49 32.58628 -96.76018 16574 ft 283 kts 195°
2026-04-26 22:49 32.56641 -96.76361 17202 ft 291 kts 195°
2026-04-26 22:49 32.54645 -96.76691 18144 ft 291 kts 195°
2026-04-26 22:49 32.52623 -96.77041 18800 ft 296 kts 195°
2026-04-26 22:50 32.50603 -96.77381 19486 ft 299 kts 195°
2026-04-26 22:50 32.48536 -96.77733 20181 ft 302 kts 195°
2026-04-26 22:50 32.46443 -96.78085 20872 ft 305 kts 196°
2026-04-26 22:50 32.44329 -96.78446 21586 ft 309 kts 195°
2026-04-26 22:51 32.42191 -96.78807 22305 ft 312 kts 196°
2026-04-26 22:51 32.40026 -96.79173 23002 ft 316 kts 195°
2026-04-26 22:51 32.37836 -96.79544 23675 ft 319 kts 196°
2026-04-26 22:51 32.35625 -96.79916 24303 ft 323 kts 196°
2026-04-26 22:52 32.33389 -96.80296 24915 ft 327 kts 197°
2026-04-26 22:52 32.31158 -96.80666 25532 ft 331 kts 196°
2026-04-26 22:52 32.28805 -96.80708 26130 ft 346 kts 184°
2026-04-26 22:52 32.26393 -96.80240 26711 ft 360 kts 174°
2026-04-26 22:53 32.23920 -96.79313 26799 ft 384 kts 169°
2026-04-26 22:53 32.21322 -96.78292 26810 ft 403 kts 168°
2026-04-26 22:53 32.18611 -96.77218 26811 ft 418 kts 168°
2026-04-26 22:53 32.15815 -96.76132 26804 ft 424 kts 168°
2026-04-26 22:54 32.13025 -96.75040 26812 ft 421 kts 169°
2026-04-26 22:54 32.10253 -96.73963 26813 ft 418 kts 169°
2026-04-26 22:54 32.07534 -96.72903 26812 ft 416 kts 169°
2026-04-26 22:54 32.04781 -96.71840 26815 ft 417 kts 169°
2026-04-26 22:55 32.02026 -96.70767 26819 ft 418 kts 169°
2026-04-26 22:55 31.99264 -96.69697 26818 ft 418 kts 169°
2026-04-26 22:55 31.96502 -96.68621 26820 ft 418 kts 169°
2026-04-26 22:55 31.93737 -96.67555 26819 ft 419 kts 169°
2026-04-26 22:56 31.90971 -96.66479 26818 ft 419 kts 168°
2026-04-26 22:56 31.88199 -96.65410 26817 ft 419 kts 169°
2026-04-26 22:56 31.85432 -96.64335 26816 ft 419 kts 168°
2026-04-26 22:56 31.82703 -96.63284 26821 ft 418 kts 169°
2026-04-26 22:57 31.79938 -96.62212 26819 ft 418 kts 168°
2026-04-26 22:57 31.77181 -96.61151 26818 ft 417 kts 169°
2026-04-26 22:57 31.74425 -96.60084 26819 ft 417 kts 168°
2026-04-26 22:57 31.71669 -96.59024 26823 ft 417 kts 169°
2026-04-26 22:58 31.68914 -96.57960 26819 ft 417 kts 168°
2026-04-26 22:58 31.66163 -96.56903 26817 ft 416 kts 169°
2026-04-26 22:58 31.63411 -96.55842 26816 ft 416 kts 168°
2026-04-26 22:58 31.60698 -96.54800 26816 ft 416 kts 169°
2026-04-26 22:59 31.57945 -96.53737 26818 ft 416 kts 168°
2026-04-26 22:59 31.55194 -96.52685 26812 ft 416 kts 169°
2026-04-26 22:59 31.52451 -96.51609 26812 ft 417 kts 166°
2026-04-26 22:59 31.49819 -96.50102 26814 ft 424 kts 156°
2026-04-26 23:00 31.47221 -96.48485 26816 ft 422 kts 159°
2026-04-26 23:00 31.44603 -96.46925 26813 ft 423 kts 159°
2026-04-26 23:00 31.41997 -96.45329 26812 ft 423 kts 158°
2026-04-26 23:00 31.39428 -96.43744 26816 ft 423 kts 158°
2026-04-26 23:01 31.36821 -96.42140 26810 ft 423 kts 158°
2026-04-26 23:01 31.34208 -96.40556 26812 ft 423 kts 158°
2026-04-26 23:01 31.31596 -96.38960 26673 ft 427 kts 158°
2026-04-26 23:01 31.28922 -96.37331 26145 ft 439 kts 158°
2026-04-26 23:02 31.26189 -96.35660 25563 ft 442 kts 158°
2026-04-26 23:02 31.23508 -96.34018 24982 ft 430 kts 158°
2026-04-26 23:02 31.20851 -96.32396 24417 ft 433 kts 158°
2026-04-26 23:02 31.18203 -96.30798 23850 ft 436 kts 157°
2026-04-26 23:03 31.15530 -96.29166 23256 ft 430 kts 157°
2026-04-26 23:03 31.12900 -96.27561 22651 ft 423 kts 157°
2026-04-26 23:03 31.10309 -96.25984 22107 ft 418 kts 157°
2026-04-26 23:03 31.07738 -96.24429 21557 ft 415 kts 157°
2026-04-26 23:04 31.05182 -96.22877 21015 ft 412 kts 157°
2026-04-26 23:04 31.02643 -96.21338 20475 ft 412 kts 157°
2026-04-26 23:04 31.00102 -96.19791 19935 ft 412 kts 156°
2026-04-26 23:04 30.97609 -96.18162 19397 ft 408 kts 155°
2026-04-26 23:05 30.95183 -96.16600 18868 ft 401 kts 156°
2026-04-26 23:05 30.92754 -96.15052 18349 ft 396 kts 155°
2026-04-26 23:05 30.90358 -96.13511 17795 ft 391 kts 155°
2026-04-26 23:05 30.87999 -96.11987 17280 ft 385 kts 155°
2026-04-26 23:06 30.85676 -96.10489 16773 ft 380 kts 155°
2026-04-26 23:06 30.83366 -96.09011 16397 ft 379 kts 155°
2026-04-26 23:06 30.81042 -96.07517 15913 ft 383 kts 155°
2026-04-26 23:06 30.78717 -96.06027 15405 ft 379 kts 154°
2026-04-26 23:07 30.76434 -96.04550 14914 ft 372 kts 154°
2026-04-26 23:07 30.74201 -96.03126 14431 ft 371 kts 154°
2026-04-26 23:07 30.71948 -96.01679 13935 ft 369 kts 154°
2026-04-26 23:07 30.69703 -96.00245 13422 ft 367 kts 153°
2026-04-26 23:08 30.67479 -95.98813 12921 ft 364 kts 153°
2026-04-26 23:08 30.65272 -95.97405 12426 ft 359 kts 153°
2026-04-26 23:08 30.63111 -95.96018 11946 ft 350 kts 153°
2026-04-26 23:08 30.61001 -95.94673 11481 ft 342 kts 153°
2026-04-26 23:09 30.58938 -95.93350 11032 ft 335 kts 153°
2026-04-26 23:09 30.56952 -95.92086 10586 ft 326 kts 153°
2026-04-26 23:09 30.54983 -95.90825 10156 ft 320 kts 152°
2026-04-26 23:09 30.53073 -95.89605 9729 ft 301 kts 153°
2026-04-26 23:10 30.51253 -95.88445 9302 ft 297 kts 153°
2026-04-26 23:10 30.49413 -95.87395 8889 ft 292 kts 163°
2026-04-26 23:10 30.47447 -95.86950 8545 ft 283 kts 176°
2026-04-26 23:10 30.45537 -95.86722 8436 ft 271 kts 176°
2026-04-26 23:11 30.43675 -95.86512 8269 ft 267 kts 177°
2026-04-26 23:11 30.41840 -95.86316 8076 ft 263 kts 176°
2026-04-26 23:11 30.40051 -95.86114 7878 ft 261 kts 176°
2026-04-26 23:11 30.38256 -95.85910 7675 ft 258 kts 176°
2026-04-26 23:12 30.36481 -95.85710 7470 ft 255 kts 175°
2026-04-26 23:12 30.34719 -95.85512 7270 ft 253 kts 175°
2026-04-26 23:12 30.32975 -95.85317 7071 ft 249 kts 175°
2026-04-26 23:12 30.31282 -95.85124 6879 ft 240 kts 175°
2026-04-26 23:13 30.29640 -95.84941 6697 ft 234 kts 175°
2026-04-26 23:13 30.28037 -95.84762 6515 ft 229 kts 175°
2026-04-26 23:13 30.26467 -95.84583 6343 ft 225 kts 175°
2026-04-26 23:13 30.24942 -95.84415 6172 ft 221 kts 175°
2026-04-26 23:14 30.23463 -95.84729 5980 ft 221 kts 208°
2026-04-26 23:14 30.22333 -95.85932 5829 ft 221 kts 225°
2026-04-26 23:14 30.21253 -95.87191 5718 ft 221 kts 220°
2026-04-26 23:14 30.20109 -95.88391 5604 ft 222 kts 218°
2026-04-26 23:15 30.18712 -95.89053 5467 ft 221 kts 185°
2026-04-26 23:15 30.17173 -95.89096 5357 ft 222 kts 180°
2026-04-26 23:15 30.15623 -95.89099 5247 ft 224 kts 179°
2026-04-26 23:15 30.14116 -95.88833 5120 ft 226 kts 156°
2026-04-26 23:16 30.12832 -95.87762 5012 ft 230 kts 140°
2026-04-26 23:16 30.11735 -95.86410 4921 ft 231 kts 132°
2026-04-26 23:16 30.10721 -95.84993 4930 ft 227 kts 131°
2026-04-26 23:16 30.09737 -95.83584 4939 ft 223 kts 131°
2026-04-26 23:17 30.08776 -95.82208 4944 ft 218 kts 131°
2026-04-26 23:17 30.07826 -95.80847 4949 ft 218 kts 131°
2026-04-26 23:17 30.06920 -95.79471 4953 ft 220 kts 123°
2026-04-26 23:17 30.06415 -95.77795 4955 ft 223 kts 107°
2026-04-26 23:18 30.06001 -95.76064 4964 ft 224 kts 110°
2026-04-26 23:18 30.05512 -95.74354 4975 ft 225 kts 112°
2026-04-26 23:18 30.04991 -95.72639 4984 ft 228 kts 112°
2026-04-26 23:18 30.04474 -95.70910 4990 ft 228 kts 111°
2026-04-26 23:19 30.03958 -95.69172 4997 ft 229 kts 111°
2026-04-26 23:19 30.03546 -95.67782 5001 ft 229 kts 111°
2026-04-26 23:19 30.03029 -95.66046 5006 ft 229 kts 112°
2026-04-26 23:19 30.02517 -95.64329 4937 ft 232 kts 111°
2026-04-26 23:20 30.01987 -95.62545 4689 ft 238 kts 111°
2026-04-26 23:20 30.01443 -95.60726 4387 ft 242 kts 112°
2026-04-26 23:20 30.00896 -95.58885 4064 ft 242 kts 111°
2026-04-26 23:20 30.00352 -95.57053 3742 ft 241 kts 111°
2026-04-26 23:21 29.99811 -95.55248 3423 ft 232 kts 112°
2026-04-26 23:21 29.99362 -95.53510 3122 ft 223 kts 102°
2026-04-26 23:21 29.99331 -95.51734 2806 ft 218 kts 92°
2026-04-26 23:21 29.99329 -95.50043 2525 ft 211 kts 94°
2026-04-26 23:22 29.99330 -95.48381 2264 ft 204 kts 93°
2026-04-26 23:22 29.99335 -95.46818 2006 ft 187 kts 94°
2026-04-26 23:22 29.99328 -95.45367 1784 ft 176 kts 93°
2026-04-26 23:22 29.99342 -95.44030 1560 ft 157 kts 95°
2026-04-26 23:23 29.99328 -95.42811 1362 ft 153 kts 95°
2026-04-26 23:23 29.99350 -95.41560 1167 ft 156 kts 91°
2026-04-26 23:23 29.99337 -95.40344 997 ft 140 kts 94°
2026-04-26 23:23 29.99349 -95.39312 783 ft 123 kts 94°
2026-04-26 23:24 29.99357 -95.38353 605 ft 116 kts 92°
2026-04-26 23:24 29.99344 -95.37440 447 ft 113 kts 91°
2026-04-26 23:24 29.99345 -95.36545 335 ft 108 kts 93°
2026-04-26 23:24 29.99342 -95.35693 177 ft 107 kts 90°
2026-04-26 23:25 29.99340 -95.34874 102 ft 92 kts 90°
2026-04-26 23:25 29.99342 -95.34359 99 ft 44 kts 90°
2026-04-26 23:25 29.99339 -95.34097 101 ft 22 kts 97°
2026-04-26 23:25 29.99307 -95.33955 101 ft 17 kts 111°
2026-04-26 23:26 29.99250 -95.33824 102 ft 19 kts 119°
2026-04-26 23:26 29.99213 -95.33753 102 ft 0 kts 122°
2026-04-26 23:27 29.99201 -95.33730 102 ft 8 kts 122°
2026-04-26 23:27 29.99157 -95.33684 102 ft 10 kts 177°
2026-04-26 23:27 29.99108 -95.33692 102 ft 13 kts 215°
2026-04-26 23:28 29.99089 -95.33883 102 ft 25 kts 270°
2026-04-26 23:28 29.99088 -95.34086 102 ft 26 kts 269°
2026-04-26 23:28 29.99085 -95.34304 102 ft 28 kts 269°
2026-04-26 23:28 29.99085 -95.34534 102 ft 29 kts 270°
2026-04-26 23:29 29.99085 -95.34775 102 ft 31 kts 270°
2026-04-26 23:29 29.99090 -95.35024 102 ft 32 kts 271°
2026-04-26 23:29 29.99083 -95.35252 102 ft 21 kts 236°
2026-04-26 23:29 29.98946 -95.35276 102 ft 21 kts 180°
2026-04-26 23:30 29.98798 -95.35276 102 ft 23 kts 180°
2026-04-26 23:30 29.98629 -95.35276 102 ft 25 kts 180°
2026-04-26 23:30 29.98464 -95.35252 102 ft 24 kts 151°
2026-04-26 23:30 29.98318 -95.35161 102 ft 24 kts 150°
2026-04-26 23:31 29.98177 -95.35069 102 ft 23 kts 151°
2026-04-26 23:31 29.98036 -95.34982 102 ft 23 kts 152°
2026-04-26 23:31 29.97897 -95.34896 102 ft 23 kts 152°
2026-04-26 23:31 29.97759 -95.34811 102 ft 22 kts 152°
2026-04-26 23:32 29.97622 -95.34728 102 ft 22 kts 152°
2026-04-26 23:32 29.97486 -95.34646 102 ft 22 kts 153°
2026-04-26 23:32 29.97349 -95.34563 102 ft 22 kts 152°
2026-04-26 23:32 29.97225 -95.34485 102 ft 14 kts 139°
2026-04-26 23:33 29.97246 -95.34385 102 ft 14 kts 61°
2026-04-26 23:33 29.97264 -95.34344 102 ft 5 kts 63°
2026-04-26 23:33 29.97257 -95.34319 102 ft 5 kts 153°
2026-04-26 23:33 29.97217 -95.34295 102 ft 7 kts 152°
2026-04-26 23:34 29.97209 -95.34277 102 ft 3 kts 60°
2026-04-26 23:34 29.97210 -95.34273 102 ft 0 kts 62°
2026-04-26 23:35 29.97214 -95.34266 102 ft 0 kts 62°